User: anonymous   Login
Location: Lawrence
(38.9720°N, 95.2350°W)
Time: 19:19:33
(UTC-05:00)
Language:

ALOS - Orbit

View from above orbital plane
View from above orbital plane
View from above satellite
View from above satellite

Ground track
Ground track

The orbit data is extracted from the following two-line orbital elements,

1 28931U 06002A   16206.23685680  .00000261  00000-0  60537-4 0  9998
2 28931  97.8814 243.3386 0000533  54.5891 305.5360 14.62216774559533
Epoch (UTC): 24 July 2016 05:41:04
Eccentricity: 0.0000533
inclination: 97.8814°
perigee height: 685 km
apogee height: 686 km
right ascension of ascending node: 243.3386°
argument of perigee: 54.5891°
revolutions per day: 14.62216774
mean anomaly at epoch: 305.5360°
orbit number at epoch: 55953

The dashed part of the orbit path shows where the satellite is in the earth's shadow,  

DLR